Terminal Aerodrome Forecast
Issued by NWS Nashville, TN

Home | Current Version | Previous Version | Text Only | Print | Product List | Glossary On
Versions: 1 2 3 4 5 6 7 8 9 10 11 12 13 14 15 16 17 18 19 20 21 22 23 24 25 26 27 28 29 30 31 32 33 34 35 36 37 38 39
999
FTUS44 KOHX 202320
TAFCSV
TAF
KCSV 202320Z 2100/2124 23006KT P6SM SCT040
     FM210700 19006KT 5SM BR BKN015
     FM211000 19005KT 3SM BR OVC007
     FM211300 18004KT 1SM -RA BR OVC003
     FM211700 18006KT P6SM OVC020=

USA.gov is the U.S. government's official web portal to all federal, state and local government web resources and services.